Location: Newark
(25.0000°N, 73.5000°E)
Time: 09:40:55
(UTC+00:00)

Explorer 11/Cluster Stage 4 - Visible Passes

Search period start: 01 March 2021 00:00
Search period end: 11 March 2021 00:00
Orbit: 467 x 1257 km, 28.8° (Epoch: 28 February)

Date Brightness Start Highest point End Pass type
(mag) Time Alt. Az. Time Alt. Az. Time Alt. Az.
01 Mar 9.7 21:41:53 12° E 21:41:53 12° E 21:42:25 10° E visible
01 Mar 7.0 23:24:02 75° WSW 23:24:43 90° NNW 23:32:39 10° ENE visible
02 Mar 7.7 01:07:00 10° W 01:14:23 67° N 01:22:36 10° E visible
02 Mar 7.0 23:13:45 83° N 23:13:45 83° N 23:21:25 10° ENE visible
03 Mar 7.6 00:56:06 10° W 01:03:18 66° N 01:11:28 10° E visible
03 Mar 7.2 23:03:27 68° NE 23:03:27 68° NE 23:10:11 10° ENE visible
04 Mar 7.6 00:45:34 12° W 00:52:13 66° N 01:00:18 10° E visible
04 Mar 7.6 22:53:08 54° NE 22:53:08 54° NE 22:58:58 10° ENE visible
05 Mar 7.5 00:35:16 15° WNW 00:41:09 66° N 00:49:09 10° E visible
05 Mar 7.9 22:42:49 43° ENE 22:42:49 43° ENE 22:47:45 10° ENE visible
06 Mar 7.4 00:24:56 18° WNW 00:30:06 67° N 00:37:59 10° E visible
06 Mar 8.3 22:32:30 34° ENE 22:32:30 34° ENE 22:36:32 10° ENE visible
07 Mar 7.3 00:14:37 22° WNW 00:19:03 69° N 00:26:48 10° E visible
07 Mar 8.7 22:22:12 27° ENE 22:22:12 27° ENE 22:25:20 10° ENE visible
08 Mar 7.2 00:04:19 27° WNW 00:08:01 72° N 00:15:37 10° E visible
08 Mar 9.0 22:11:56 21° ENE 22:11:56 21° ENE 22:14:09 10° ENE visible
08 Mar 7.1 23:54:03 34° WNW 23:56:58 75° NNE 00:04:25 10° E visible
09 Mar 9.3 22:01:43 16° ENE 22:01:43 16° ENE 22:03:00 10° E visible
09 Mar 6.9 23:43:50 44° WNW 23:45:57 80° NNE 23:53:12 10° E visible
10 Mar 9.6 21:51:32 11° E 21:51:32 11° E 21:51:52 10° E visible
10 Mar 6.7 23:33:40 58° WNW 23:34:56 86° NNE 23:42:00 10° ESE visible
